Back to catalog

STARLINK-32050

AliveCommunicationsVLEO
NORAD 60137·PAYLOAD·🇺🇸 United States

Launched Jun 27, 2024 from Cape Canaveral Space Force Station

Loading…

Next Passes (next 24 hours)

TLE

FreshSource: CelesTrak SupGP

Epoch: Sep 15, 2026, 03:26 UTC

1 60137C 24120C   26258.14354167  .00016070  00000+0  47485-3 0  2582
2 60137  53.1581 156.7374 0001281  86.4791  53.9295 15.34378768    18

Track STARLINK-32050 in real time with AllMySat

Download on the App Store